EW5447 Weather Reports


Display with metric or nautical units.
time (UTC)temp
F
wind
direction
speed
MPH
gust
MPH
rain 1hr
in
rain 24hr
in
rain mn
in
humidity
%
barometer
mb
20260506044527 60 130 0.0 0.0 0.00 0.00 0.00 60 1015.2
20260506043024 59 44 0.0 1.0 0.00 0.00 0.00 65 1014.8
20260506041523 60 348 1.0 3.0 0.00 0.00 0.00 62 1014.6
20260506040023 62 351 2.0 4.0 0.00 0.00 0.00 60 1014.4
20260506034524 63 346 2.0 4.0 0.00 0.00 0.00 59 1014.2
20260506033022 65 351 2.0 4.0 0.00 0.00 0.00 55 1013.9
20260506031521 65 347 2.0 5.0 0.00 0.00 0.00 55 1013.7
20260506030020 68 355 3.0 6.0 0.00 0.00 0.00 51 1013.5
20260506024520 70 342 3.0 8.0 0.00 0.00 0.00 46 1013.2
20260506023021 72 340 3.0 9.0 0.00 0.00 0.00 43 1013.1
20260506021518 73 321 2.0 5.0 0.00 0.00 0.00 42 1012.9
20260506020030 74 322 4.0 10.0 0.00 0.00 0.00 40 1012.8
20260506014516 75 320 4.0 10.0 0.00 0.00 0.00 39 1012.8
20260506013019 76 322 3.0 9.0 0.00 0.00 0.00 39 1012.7
20260506011515 77 332 4.0 12.0 0.00 0.00 0.00 37 1012.6
20260506010017 78 334 5.0 10.0 0.00 0.00 0.00 38 1012.6
20260506004521 80 319 4.0 9.0 0.00 0.00 0.00 39 1012.5
20260506003016 80 257 0.0 2.0 0.00 0.00 0.00 44 1012.3
20260506001510 79 5 1.0 4.0 0.00 0.00 0.00 43 1012.3
20260506000008 79 102 2.0 7.0 0.00 0.00 0.00 44 1012.3
20260505234507 78 334 0.0 4.0 0.00 0.00 0.00 46 1012.3
20260505233005 77 203 4.0 6.0 0.00 0.00 0.00 47 1012.4
20260505231507 78 205 3.0 8.0 0.00 0.00 0.00 50 1012.5
20260505230010 77 155 1.0 5.0 0.00 0.00 0.00 47 1012.6
20260505224559 77 198 3.0 8.0 0.00 0.00 0.00 47 1012.9
20260505223104 76 306 2.0 7.0 0.00 0.00 0.00 48 1013.0
20260505221601 76 208 1.0 7.0 0.00 0.00 0.00 50 1013.0
20260505220106 76 248 4.0 9.0 0.00 0.00 0.00 51 1013.3
20260505214605 74 207 2.0 8.0 0.00 0.00 0.00 50 1013.4
20260505213053 74 194 3.0 7.0 0.00 0.00 0.00 50 1013.7
20260505211626 74 301 0.0 4.0 0.00 0.00 0.00 51 1013.8
20260505210050 72 204 2.0 6.0 0.00 0.00 0.00 51 1014.0
20260505204558 71 120 1.0 3.0 0.00 0.00 0.00 56 1014.2
20260505203046 70 217 3.0 8.0 0.00 0.00 0.00 54 1014.5
20260505201544 69 269 1.0 9.0 0.00 0.00 0.00 56 1014.7
20260505200042 68 192 1.0 9.0 0.00 0.00 0.00 56 1014.8
20260505194541 68 135 1.0 6.0 0.00 0.00 0.00 57 1014.9
20260505193040 68 70 0.0 5.0 0.00 0.00 0.00 57 1015.0
20260505191539 67 95 1.0 6.0 0.00 0.00 0.00 59 1015.1
20260505190037 66 188 2.0 9.0 0.00 0.00 0.00 58 1015.2
20260505184541 65 350 2.0 7.0 0.00 0.00 0.00 64 1015.3
20260505183036 65 209 4.0 9.0 0.00 0.00 0.00 60 1015.4
20260505181542 66 182 3.0 8.0 0.00 0.00 0.00 63 1015.4
20260505180030 63 183 2.0 6.0 0.00 0.00 0.00 66 1015.5
20260505174536 64 170 3.0 7.0 0.00 0.00 0.00 64 1015.6
20260505173027 61 148 2.0 6.0 0.00 0.00 0.00 69 1015.6
20260505171533 62 208 3.0 6.0 0.00 0.00 0.00 66 1015.7
20260505170024 62 194 2.0 5.0 0.00 0.00 0.00 68 1015.6
20260505164519 61 256 3.0 8.0 0.00 0.00 0.00 69 1015.8
20260505163017 59 225 3.0 6.0 0.00 0.00 0.00 75 1015.9
20260505161513 58 273 0.0 3.0 0.00 0.00 0.00 76 1015.9
20260505153003 56 116 0.0 0.0 0.00 0.00 0.00 83 1016.0
20260505151603 55 265 0.0 0.0 0.00 0.00 0.00 86 1015.8
20260505124532 45 38 0.0 0.0 0.00 0.00 0.00 94 1014.9
20260505123045 43 38 0.0 0.0 0.00 0.00 0.00 94 1014.9
20260505121529 43 38 0.0 2.0 0.00 0.00 0.00 93 1014.8
20260505120027 43 315 0.0 0.0 0.00 0.00 0.00 93 1014.6
20260505114527 43 351 0.0 3.0 0.00 0.00 0.00 93 1014.5
20260505113024 42 289 0.0 3.0 0.00 0.00 0.00 93 1014.5
20260505111531 42 31 0.0 0.0 0.00 0.00 0.00 93 1014.3
20260505101511 45 19 0.0 1.0 0.00 0.00 0.00 91 1013.9
20260505100011 45 255 0.0 0.0 0.00 0.00 0.00 90 1013.9
20260505094507 47 264 0.0 0.0 0.00 0.00 0.00 89 1013.9
20260505093011 47 333 0.0 2.0 0.00 0.00 0.00 89 1013.8
20260505091502 48 39 1.0 3.0 0.00 0.00 0.00 86 1013.9
20260505090002 50 5 0.0 0.0 0.00 0.00 0.00 86 1013.8
20260505084605 50 278 0.0 0.0 0.00 0.00 0.00 85 1013.8
20260505083112 51 297 0.0 3.0 0.00 0.00 0.00 84 1013.8
20260505081600 51 38 0.0 2.0 0.00 0.00 0.00 87 1013.6
20260505080104 50 43 1.0 2.0 0.00 0.00 0.00 85 1013.6
20260505074554 51 9 1.0 2.0 0.00 0.00 0.00 84 1013.5
20260505073059 52 42 0.0 2.0 0.00 0.00 0.00 86 1013.4
20260505071550 51 57 0.0 0.0 0.00 0.00 0.00 85 1013.3
20260505070047 54 10 0.0 3.0 0.00 0.00 0.00 81 1013.1
20260505064615 55 313 1.0 5.0 0.00 0.00 0.00 78 1013.0
20260505063046 56 337 1.0 4.0 0.00 0.00 0.00 78 1012.8
20260505061544 57 10 0.0 3.0 0.00 0.00 0.00 77 1012.7
20260505060044 57 355 2.0 4.0 0.00 0.00 0.00 77 1012.4
20260505054549 58 39 0.0 2.0 0.00 0.00 0.00 75 1012.3
20260505053043 59 304 2.0 4.0 0.00 0.00 0.00 73 1012.1